FENGYUN 1C DEB, 38728

Orbit data source: Space-Track

FENGYUN 1C DEB, 38728 is space debris in SSO originally from a launch on Mon, 10 May 1999 UTC launched from the Taiyaun Space Center, China (TSC). Fengyun 1C debris stems from the Chinese weather satellite Fengyun-1C, which was intentionally destroyed by a Chinese anti-satellite missile in 2007. This event dramatically increased the amount of space debris, with thousands of trackable fragments posing hazards to satellites and human spaceflight. The Fengyun 1C debris cloud has become a focal point in discussions about space sustainability and the need for international regulations to prevent the creation of new debris.

Loading next visibility...
Identifier
38728, 1999-025ETV
Orbit
SSO
Country
Flag of CNCN / PRC
Related business
Manufacturer
Unknown
Mission
Spacecraft
Bus & Motor
Unknown
Mass
Unknown
Launch date (UTC)
1999-05-10 (27 years ago)
Launch vehicle
Unknown
Launch site
Taiyaun Space Center, China (TSC)
Object type
Payload
Rocket body
Debris
Shape & HBR
Unknown shape, 0.1 m
Radar Cross Section
Small (<0.1 m²)

Expand to show TLE details & history
Last TLE update: 3 weeks ago

TLE from 3 weeks ago
0 FENGYUN 1C DEB
1 38728U 99025ETV 26183.87919189  .00007257  00000-0  10795-2 0  9990
2 38728  99.2593 204.2133 0071264 150.3150 336.6970 14.73583825685859
Epoch: 2026-07-02T21:06Z
TLE epoch observation values (Epoch: 2026-07-02T21:06:02.179Z)
Latitude
52.42763°
Longitude
158.95542°
Altitude
612.191 km
Speed
7.583 km/s
True Right ascension
02h 25m 31s
True Declination
52° 15' 28"
Sunlit
Object was in daylight at epoch
Visualization orbit readout
Latitude
Unknown
Longitude
Unknown
Altitude
Unknown
Speed
Unknown
Apparent Right ascension
Unknown
Apparent Declination
Unknown
Sunlit
N/A
Visualization observer readout
Local Sidereal Time
16:15:14
Azimuth
Unknown
Elevation
Unknown
Doppler factor
Unknown
Orbital elements
Apogee altitude
696.828 km
Perigee altitude
596.703 km
Semi-major axis
7,024.902 km
Eccentricity
0.00713
Inclination
99.2593°
RAAN
204.2133°
Arg. of periapsis
150.315°
True anomaly
336.37129°
Mean anomaly
336.697°
Eccentric anomaly
336.53441°
Mean motion
3.68623 °/min
Orbital period
97.66 mins
BSTAR
0.0010795
Loading maneuver chart data...
Computing Atmospheric mass density...

Documentation

Showing up to 5 results
|